Simultaneous Nadir Overpasses (SNOs) Predictions

Prediction of SNOs between METOP-B and NOAA-19 Satellite Orbit:

Table of predicted SNOs for the next 14.0 days since TLE Epoch: 10/31/2015
Index Date (METOP-B) Time (METOP-B) Lat,Lon (METOP-B) SZA (METOP-B ) Date (NOAA-19) Time (NOAA-19) Lat,Lon (NOAA-19) SZA (NOAA-19 ) Distance(km) Time Diff (sec)
1 11/05/2015 21:46:23 75.89,-146.60 91.63 11/05/2015 21:45:16 75.88,-149.71 91.59 84.16 67
2 11/05/2015 22:37:15 -75.39, 19.17 88.88 11/05/2015 22:36:02 -75.42, 19.12 88.86 3.21 73
3 11/05/2015 23:27:55 75.39,-173.50 91.13 11/05/2015 23:27:07 75.36,-173.47 91.10 3.77 48
4 11/06/2015 00:18:37 -75.37, -6.24 88.89 11/06/2015 00:18:03 -75.35, -6.18 88.90 2.47 34
5 11/06/2015 01:09:17 75.37, 161.10 91.13 11/06/2015 01:09:09 75.34, 161.08 91.10 3.43 8
6 11/06/2015 01:59:59 -75.35, -31.64 88.89 11/06/2015 02:00:05 -75.33, -31.63 88.90 1.70 6
7 11/06/2015 02:50:40 75.30, 135.55 91.08 11/06/2015 02:51:11 75.32, 135.63 91.10 3.16 31
8 11/06/2015 03:41:21 -75.33, -57.05 88.89 11/06/2015 03:42:07 -75.31, -57.08 88.90 1.61 46
9 11/06/2015 04:32:02 75.28, 110.14 91.08 11/06/2015 04:33:13 75.30, 110.18 91.11 2.81 71
10 11/06/2015 05:22:53 -74.83, -83.83 89.38 11/06/2015 05:24:00 -74.88, -81.26 89.30 74.88 67




NCC Satellite Simultaneous Nadir Overpasses (SNOs) Prediction Service
